CW1032 Weather Reports


time (UTC)temp
C
wind
direction
speed
KPH
gust
KPH
rain 1hr
cm
rain 24hr
cm
rain mn
cm
humidity
%
barometer
mb
20260504050550 3 0 0.0 0.0 0.00 0.00 0.00 83 1015.4
20260504045549 3 0 0.0 0.0 0.00 0.00 0.00 82 1015.4
20260504045051 4 0 0.0 0.0 0.00 0.00 0.00 82 1015.5
20260504044600 4 0 0.0 0.0 0.00 0.00 0.00 82 1015.4
20260504044050 4 0 0.0 0.0 0.00 0.00 0.00 82 1015.5
20260504043550 4 0 0.0 0.0 0.00 0.00 0.00 82 1015.5
20260504043055 4 0 0.0 0.0 0.00 0.00 0.00 81 1015.4
20260504042549 4 0 0.0 0.0 0.00 0.00 0.00 81 1015.4
20260504042050 4 0 0.0 0.0 0.00 0.00 0.00 81 1015.4
20260504041555 5 0 0.0 0.0 0.00 0.00 0.00 80 1015.4
20260504041049 5 0 0.0 1.6 0.00 0.00 0.00 80 1015.3
20260504040551 5 0 0.0 1.6 0.00 0.00 0.00 80 1015.2
20260504040053 5 0 0.0 1.6 0.00 0.00 0.00 80 1015.1
20260504035550 5 0 0.0 0.0 0.00 0.00 0.00 80 1014.9
20260504035050 5 0 0.0 0.0 0.00 0.00 0.00 79 1014.9
20260504034553 5 0 0.0 0.0 0.00 0.00 0.00 78 1015.1
20260504034054 5 0 0.0 0.0 0.00 0.00 0.00 78 1015.1
20260504033550 5 0 0.0 0.0 0.00 0.00 0.00 78 1015.0
20260504033051 5 0 0.0 0.0 0.00 0.00 0.00 77 1014.9
20260504032550 5 0 0.0 0.0 0.00 0.00 0.00 77 1014.9
20260504032050 5 0 0.0 0.0 0.00 0.00 0.00 76 1015.0
20260504031550 5 0 0.0 0.0 0.00 0.00 0.00 76 1014.9
20260504031049 5 0 0.0 0.0 0.00 0.00 0.00 76 1014.7
20260504030550 5 0 0.0 0.0 0.00 0.00 0.00 76 1014.7
20260504030053 6 0 0.0 0.0 0.00 0.00 0.00 75 1014.8
20260504025551 6 0 0.0 0.0 0.00 0.00 0.00 74 1014.8
20260504025051 6 0 0.0 0.0 0.00 0.00 0.00 73 1014.9
20260504024602 6 0 0.0 0.0 0.00 0.00 0.00 73 1014.7
20260504024049 6 0 0.0 0.0 0.00 0.00 0.00 73 1014.6
20260504023550 6 0 0.0 0.0 0.00 0.00 0.00 72 1014.7
20260504023053 6 0 0.0 0.0 0.00 0.00 0.00 72 1014.7
20260504022550 6 0 0.0 0.0 0.00 0.00 0.00 70 1014.6
20260504022052 6 0 0.0 0.0 0.00 0.00 0.00 70 1014.6
20260504021550 7 0 0.0 0.0 0.00 0.00 0.00 70 1014.6
20260504021050 7 0 0.0 0.0 0.00 0.00 0.00 69 1014.5
20260504020551 7 0 0.0 0.0 0.00 0.00 0.00 68 1014.6
20260504020057 7 0 0.0 0.0 0.00 0.00 0.00 66 1014.6
20260504015550 7 0 0.0 0.0 0.00 0.00 0.00 65 1014.7
20260504015050 7 0 0.0 0.0 0.00 0.00 0.00 65 1014.6
20260504014601 7 0 0.0 0.0 0.00 0.00 0.00 64 1014.6
20260504014049 8 0 0.0 0.0 0.00 0.00 0.00 63 1014.6
20260504013549 8 0 0.0 0.0 0.00 0.00 0.00 64 1014.5
20260504013056 8 0 0.0 1.6 0.00 0.00 0.00 64 1014.5
20260504012552 8 0 0.0 1.6 0.00 0.00 0.00 63 1014.5
20260504012051 8 0 0.0 0.0 0.00 0.00 0.00 62 1014.5
20260504011551 8 0 0.0 0.0 0.00 0.00 0.00 60 1014.4
20260504011050 8 0 0.0 0.0 0.00 0.00 0.00 59 1014.3
20260504010550 9 0 0.0 0.0 0.00 0.00 0.00 58 1014.3
20260504010057 9 0 0.0 0.0 0.00 0.00 0.00 58 1014.2
20260504005550 10 0 0.0 0.0 0.00 0.00 0.00 57 1014.1
20260504005050 10 0 0.0 0.0 0.00 0.00 0.00 56 1014.2
20260504004550 10 0 0.0 0.0 0.00 0.00 0.00 54 1014.1
20260504004050 10 0 0.0 0.0 0.00 0.00 0.00 53 1014.0
20260504003551 11 0 0.0 0.0 0.00 0.00 0.00 52 1013.9
20260504003055 11 0 0.0 0.0 0.00 0.00 0.00 52 1013.9
20260504002550 11 0 0.0 0.0 0.00 0.00 0.00 51 1013.9
20260504002050 12 0 0.0 0.0 0.00 0.00 0.00 48 1013.8
20260504001551 12 0 0.0 0.0 0.00 0.00 0.00 46 1013.8
20260504001050 12 0 0.0 0.0 0.00 0.00 0.00 45 1013.8
20260504000550 13 0 0.0 0.0 0.00 0.00 0.00 45 1013.7
20260504000128 13 0 0.0 1.6 0.00 0.00 0.00 43 1013.7
20260503235550 13 0 0.0 1.6 0.00 0.00 0.00 41 1013.7
20260503235049 13 291 0.0 1.6 0.00 0.00 0.00 41 1013.6
20260503234559 13 0 0.0 4.8 0.00 0.00 0.00 40 1013.6
20260503234052 13 294 0.0 4.8 0.00 0.00 0.00 40 1013.5
20260503233550 13 305 0.0 1.6 0.00 0.00 0.00 41 1013.4
20260503233054 14 325 0.0 1.6 0.00 0.00 0.00 42 1013.3
20260503232551 14 0 0.0 3.2 0.00 0.00 0.00 41 1013.3
20260503232050 14 0 0.0 3.2 0.00 0.00 0.00 40 1013.3
20260503231553 15 306 0.0 3.2 0.00 0.00 0.00 39 1013.3
20260503231050 15 0 0.0 4.8 0.00 0.00 0.00 40 1013.3
20260503230549 15 299 0.0 6.4 0.00 0.00 0.00 38 1013.3
20260503230054 15 0 1.6 6.4 0.00 0.00 0.00 38 1013.3
20260503225549 15 300 0.0 6.4 0.00 0.00 0.00 39 1013.4
20260503225049 15 0 0.0 8.0 0.00 0.00 0.00 39 1013.3
20260503224553 15 318 1.6 8.0 0.00 0.00 0.00 36 1013.3
20260503224053 15 257 0.0 6.4 0.00 0.00 0.00 37 1013.4
20260503223551 16 306 0.0 8.0 0.00 0.00 0.00 37 1013.3
20260503223052 16 0 1.6 8.0 0.00 0.00 0.00 36 1013.3
20260503222551 16 273 1.6 8.0 0.00 0.00 0.00 35 1013.3
20260503222051 17 130 0.0 8.0 0.00 0.00 0.00 36 1013.3
20260503221555 17 338 0.0 8.0 0.00 0.00 0.00 34 1013.3
20260503221050 16 290 1.6 8.0 0.00 0.00 0.00 37 1013.4
20260503220550 16 318 0.0 6.4 0.00 0.00 0.00 36 1013.4
20260503220053 16 0 1.6 17.7 0.00 0.00 0.00 35 1013.4
20260503215549 16 254 4.8 17.7 0.00 0.00 0.00 34 1013.4
20260503215050 16 307 1.6 11.3 0.00 0.00 0.00 37 1013.4
20260503214552 17 308 1.6 11.3 0.00 0.00 0.00 34 1013.3
20260503214051 16 0 1.6 6.4 0.00 0.00 0.00 34 1013.4
20260503213550 17 314 1.6 9.7 0.00 0.00 0.00 35 1013.4
20260503213055 17 268 1.6 9.7 0.00 0.00 0.00 35 1013.2
20260503212550 17 329 0.0 9.7 0.00 0.00 0.00 34 1013.3
20260503212050 16 80 0.0 6.4 0.00 0.00 0.00 35 1013.2
20260503211613 16 319 1.6 11.3 0.00 0.00 0.00 35 1013.2
20260503211050 16 302 3.2 17.7 0.00 0.00 0.00 35 1013.3
20260503210549 16 315 4.8 17.7 0.00 0.00 0.00 34 1013.2
20260503210055 16 148 1.6 11.3 0.00 0.00 0.00 35 1013.3
20260503205550 16 324 1.6 9.7 0.00 0.00 0.00 37 1013.3
20260503205050 16 307 3.2 9.7 0.00 0.00 0.00 34 1013.3
20260503204555 16 300 1.6 9.7 0.00 0.00 0.00 36 1013.4
20260503204051 16 312 1.6 14.5 0.00 0.00 0.00 34 1013.5
20260503203551 16 318 1.6 14.5 0.00 0.00 0.00 35 1013.5
20260503203107 16 305 1.6 11.3 0.00 0.00 0.00 36 1013.4
20260503202553 16 158 1.6 11.3 0.00 0.00 0.00 36 1013.5
20260503202054 16 301 3.2 11.3 0.00 0.00 0.00 35 1013.6
20260503201554 16 305 3.2 11.3 0.00 0.00 0.00 37 1013.5
20260503201049 16 307 1.6 14.5 0.00 0.00 0.00 36 1013.6
20260503200554 16 295 1.6 14.5 0.00 0.00 0.00 36 1013.7
20260503200053 16 0 1.6 11.3 0.00 0.00 0.00 37 1013.8
20260503195549 16 309 1.6 27.4 0.00 0.00 0.00 37 1013.9
20260503195049 16 314 1.6 27.4 0.00 0.00 0.00 36 1014.0
20260503194558 16 307 3.2 19.3 0.00 0.00 0.00 37 1014.0
20260503194055 16 314 1.6 14.5 0.00 0.00 0.00 36 1014.2
20260503193551 16 324 4.8 14.5 0.00 0.00 0.00 37 1014.2
20260503193058 16 298 1.6 8.0 0.00 0.00 0.00 40 1014.2
20260503192551 15 0 1.6 14.5 0.00 0.00 0.00 40 1014.2
20260503192050 15 316 3.2 14.5 0.00 0.00 0.00 39 1014.1
20260503191559 15 317 3.2 14.5 0.00 0.00 0.00 36 1014.4
20260503191053 15 324 3.2 9.7 0.00 0.00 0.00 38 1014.3
20260503190550 16 348 1.6 9.7 0.00 0.00 0.00 38 1014.3
20260503190053 15 318 1.6 14.5 0.00 0.00 0.00 39 1014.2
20260503185550 15 300 0.0 14.5 0.00 0.00 0.00 40 1014.5
20260503185050 15 127 3.2 14.5 0.00 0.00 0.00 40 1014.5
20260503184555 15 300 4.8 12.9 0.00 0.00 0.00 43 1014.6
20260503184053 15 172 3.2 11.3 0.00 0.00 0.00 43 1014.6
20260503183549 14 339 1.6 8.0 0.00 0.00 0.00 41 1014.7
20260503183053 14 313 1.6 14.5 0.00 0.00 0.00 39 1014.8
20260503182549 15 313 3.2 14.5 0.00 0.00 0.00 40 1014.9
20260503182051 15 314 1.6 11.3 0.00 0.00 0.00 42 1014.9
20260503181602 15 302 1.6 11.3 0.00 0.00 0.00 46 1014.9
20260503181051 14 328 3.2 11.3 0.00 0.00 0.00 42 1015.0
20260503180550 14 303 3.2 19.3 0.00 0.00 0.00 41 1015.0
20260503175551 15 309 1.6 17.7 0.00 0.00 0.00 40 1015.0
20260503175050 15 163 0.0 17.7 0.00 0.00 0.00 40 1014.9
20260503174557 15 178 4.8 11.3 0.00 0.00 0.00 40 1015.0
20260503174054 15 318 1.6 11.3 0.00 0.00 0.00 41 1015.0
20260503173550 14 312 3.2 12.9 0.00 0.00 0.00 40 1015.2
20260503173058 13 327 3.2 12.9 0.00 0.00 0.00 42 1015.0
20260503172549 14 332 3.2 12.9 0.00 0.00 0.00 40 1015.1
20260503172051 13 298 3.2 17.7 0.00 0.00 0.00 43 1015.3
20260503171553 13 95 1.6 17.7 0.00 0.00 0.00 42 1015.1
20260503171050 13 274 1.6 11.3 0.00 0.00 0.00 42 1015.3
20260503170550 13 333 4.8 11.3 0.00 0.00 0.00 42 1015.4
20260503150550 11 309 0.0 14.5 0.00 0.00 0.00 46 1015.8
20260503131053 7 311 3.2 11.3 0.00 0.00 0.00 59 1016.4
20260503130550 7 312 3.2 11.3 0.00 0.00 0.00 59 1016.3
20260503110551 4 297 1.6 9.7 0.00 0.00 0.00 71 1015.2
20260503081554 4 301 0.0 3.2 0.00 0.00 0.00 72 1013.4
20260503081053 5 0 0.0 3.2 0.00 0.00 0.00 72 1013.4
20260503080553 5 260 0.0 4.8 0.00 0.00 0.00 72 1013.3
20260503072551 5 0 0.0 1.6 0.00 0.00 0.00 72 1013.0
20260503072049 5 0 0.0 1.6 0.00 0.00 0.00 72 1012.9
20260503071603 5 0 0.0 3.2 0.00 0.00 0.00 71 1012.8
20260503071049 5 305 0.0 3.2 0.00 0.00 0.00 71 1012.8
20260503070549 5 0 0.0 3.2 0.00 0.00 0.00 71 1012.7
20260503060107 5 0 0.0 6.4 0.00 0.00 0.00 71 1012.5
20260503055049 5 300 0.0 6.4 0.00 0.00 0.00 71 1012.6
20260503054556 5 0 0.0 3.2 0.00 0.00 0.00 71 1012.7
20260503054049 6 0 0.0 3.2 0.00 0.00 0.00 71 1012.7